sat.trackr.live / text

‹ back to catalog

STARLINK-11181 [DTC]

NORAD 60059 · 2024-113A

PAYLOAD ACTIVE UNKNOWN

§ Identity

Operator
Country
US
Launch date
2024-06-19
Launch site
AFWTR
Launch vehicle
Mass (kg)
RCS (m²)

Purposes: comms

External: N2YO · Heavens-Above · Gunter

§ Orbital elements

Epoch: 2026-05-24T10:03:58.179168Z

Period
91.74 min
Inclination
53.1592°
Eccentricity
0.0000951
Mean motion
15.69706522 rev/d
Perigee alt
359.1 km
Apogee alt
360.4 km
Semi-major
6,737.9 km
B*
1.1052e-5
RAAN
178.0234°
Arg perigee
81.8732°
Mean anomaly
278.2394°
Rev number
11,145

§ Raw data

STARLINK-11181 [DTC]1 60059U 24113A   26144.41942337  .00000751  00000+0  11052-4 0  99962 60059  53.1592 178.0234 0000951  81.8732 278.2394 15.69706522111456

JSON: /api/v1/satellites/60059 · /tle

For live sub-satellite position, see the globe view (requires WebGL).

§ Visibility from observer

Set your observer location to see the next 7 days of passes ≥ 10°. The values pass through the URL so the page stays shareable.

No JS? Fill the form by hand. The geolocation button needs JavaScript.